Find Starlink 4187

NORAD ID: 52850 Int'l Des: 2022-062 Owner: SPXS Country: US Constellation: starlink operational
LEOCIRCULAR

当前视图

正在加载3D地球...

About Starlink 4187

Starlink 4187 (NORAD 52850) is a starlink constellation satellite (v1.5) launched Jun 17, 2022 by SPXS of US. It operates in LEO, CIRCULAR orbit with a mass of 297.00 kg.

关于 Starlink 4187

正在加载描述...

即将过境

Passes for default location (London). Set your location on the main map for personalized predictions.

高度历史

Loading altitude history...

两行轨道根数

1 52850U 22062W 26169.63473474 .00000248 00000-0 33642-4 0 9990
2 52850 53.1606 301.2119 0001117 80.1677 279.9441 15.08835813221024
Epoch: Jun 18, 2026 • Age: 8 hours

当前状态

高度 552.9 km
速度 7.58 km/s
星下点 -38.61°S, 11.7°E
发射日期 Jun 17, 2022
运行时间 4 years
类型 internet

技术详情

分类 Payload
质量 297.00 kg
干质量 275.00 kg
总质量 297.00 kg
长度 0.20 m
直径 2.80 m
跨度 9.00 m
形状 Box + pan
制造商 SPXS
平台类型 Starlink
阶段状态 In Orbit
所有者/国家 SPXS/US

Most Searched